Theta_e
300 294 291 295 296 297 295 293 292 296 296 294 293 294 297 296 295 294 295 295 294 294 294 295 297 299 300 302 303 304 304 304 304 303 302 300 297 296 294 295 296 296 298 299
294 291 298 300 299 297 295 292 292 296 296 293 293 293 296 296 295 296 296 294 294 292 292 294 296 299 299 300 302 303 305 305 305 303 301 298 293 292 292 292 292 293 293 293
293 297 300 298 296 294 294 292 292 292 295 293 290 289 293 297 297 296 297 296 295 292 291 292 295 296 298 298 299 301 302 303 300 298 296 293 292 291 289 288 289 290 290 290
296 300 298 295 295 295 290 297 295 293 290 285 291 283 291 295 296 294 294 293 292 292 293 293 294 294 297 296 298 299 300 299 298 296 294 292 290 287 287 287 287 288 289 288
294 293 294 293 294 296 292 295 292 291 288 286 287 285 289 294 294 292 292 292 291 292 292 291 292 292 292 294 294 294 294 294 294 293 291 290 288 288 287 287 286 286 286 287
295 297 295 294 296 296 297 293 291 289 288 281 288 288 287 293 294 292 292 292 292 291 290 290 289 289 289 290 290 290 290 290 291 291 290 288 287 287 286 285 285 284 284 285
293 293 295 296 291 294 294 290 282 280 279 280 288 286 291 294 293 295 292 292 292 291 290 288 287 287 288 288 288 288 288 288 290 289 289 288 287 287 286 285 284 283 283 282
287 286 293 295 294 292 290 290 283 276 279 281 282 281 288 290 291 292 295 293 292 291 290 287 287 287 287 288 288 287 287 286 287 287 287 287 287 286 286 285 284 283 282 282
289 290 294 295 295 296 289 286 293 286 277 277 284 287 291 289 288 289 292 291 291 290 289 287 287 287 286 286 285 286 286 286 286 286 286 285 286 285 285 284 283 282 282 283
293 288 291 289 293 292 291 294 285 286 279 278 282 284 286 286 287 288 290 290 291 290 289 288 287 286 286 285 285 285 285 285 285 285 285 285 285 284 284 283 282 281 281 281
294 291 285 288 286 288 287 286 288 290 285 281 277 284 291 294 291 288 290 291 291 290 289 288 287 287 286 285 285 284 284 284 284 285 285 284 284 284 283 282 281 281 280 280
295 293 285 285 291 293 293 291 291 285 283 285 285 286 291 291 292 291 291 291 292 291 289 288 287 286 285 285 284 284 284 284 284 285 284 284 284 283 282 281 281 280 280 280
296 289 285 286 288 289 287 290 292 292 288 284 280 285 289 290 291 291 290 291 291 290 289 288 287 286 285 284 284 284 284 284 285 285 284 283 282 282 281 281 280 280 279 278
299 289 287 286 287 287 283 287 289 289 285 285 286 288 286 287 288 290 290 291 291 290 289 288 287 286 285 285 284 283 284 284 284 284 283 281 281 281 281 280 280 279 279 278
296 286 288 290 291 291 287 285 287 286 288 284 288 289 293 291 290 291 292 291 290 290 289 288 288 287 286 285 284 284 284 284 284 284 282 282 281 281 281 280 280 279 278 277
293 286 288 286 289 290 288 290 288 287 289 289 290 289 295 297 293 290 291 291 290 290 291 290 289 289 286 285 285 284 284 283 283 283 282 282 282 281 281 280 279 278 277 276
288 286 284 283 286 287 283 288 290 291 290 290 286 291 289 290 291 289 290 291 291 291 291 291 290 290 288 286 285 284 284 283 283 282 282 282 282 282 281 280 278 277 276 276
285 285 286 283 284 278 285 287 293 292 293 294 291 292 288 291 291 291 293 291 290 291 291 291 291 291 289 288 285 284 283 282 282 282 282 282 282 280 280 279 277 275 275 274
288 286 283 281 281 282 285 282 284 286 288 293 293 294 287 287 290 290 292 292 291 291 291 291 291 290 289 287 286 284 282 282 282 282 282 282 281 280 279 278 276 275 274 273
284 284 284 282 279 276 281 281 284 288 281 288 291 291 284 287 286 290 289 290 291 291 290 289 288 287 287 285 285 283 282 281 281 282 282 282 281 280 278 277 275 274 272 272
277 279 278 281 279 282 285 281 283 278 282 280 283 284 285 288 289 290 286 286 286 286 285 284 285 285 284 283 283 282 281 280 281 280 279 279 279 279 278 275 271 271 269 271
279 278 277 279 279 277 280 280 282 281 280 281 283 283 283 282 282 282 282 282 282 282 283 283 282 281 281 281 282 280 280 280 278 278 277 276 275 275 274 271 268 267 268 265
280 284 283 283 282 279 281 279 282 282 281 281 283 283 283 280 279 280 280 280 280 280 280 279 280 279 278 279 280 279 277 277 276 275 273 270 270 270 269 268 266 265 265 265
279 280 279 280 280 279 280 284 285 282 280 281 282 283 282 280 279 279 278 279 279 278 278 277 278 277 276 275 277 275 276 275 273 271 270 268 268 266 265 267 267 266 266 266
279 279 278 276 278 280 282 283 285 285 280 280 280 281 280 280 279 279 279 278 279 279 277 277 277 277 275 274 273 271 272 272 270 269 268 267 266 265 265 267 266 268 266 268
277 278 278 278 281 283 284 286 286 283 280 279 279 278 280 280 279 279 278 279 278 277 275 275 275 275 272 273 269 267 266 268 268 267 267 266 266 265 266 265 264 273 274 275
Wind_Speed
6 4 10 14 12 12 9 10 7 9 4 5 10 13 11 13 9 10 10 10 9 9 7 6 5 7 6 6 6 6 8 7 6 6 7 7 8 8 8 8 9 9 8 9
2 11 15 8 10 8 9 11 12 8 6 4 8 13 11 11 15 18 13 10 10 9 8 7 7 7 5 6 6 5 7 6 4 4 5 6 6 8 7 7 8 8 9 9
11 4 12 12 7 4 10 10 8 9 4 6 6 11 14 12 12 11 9 8 9 13 10 8 8 8 7 6 6 5 5 6 9 10 9 9 8 6 7 6 6 7 8 8
13 14 11 6 12 9 9 9 11 10 4 6 8 10 4 8 13 14 10 8 9 10 10 9 8 8 8 6 6 6 6 8 7 8 8 8 7 9 4 6 5 6 7 8
7 8 10 13 8 9 5 4 3 3 6 6 7 12 5 10 18 17 15 11 10 11 12 11 9 8 8 6 6 6 7 5 6 8 9 10 11 8 7 6 8 7 7 8
9 3 3 5 3 5 8 5 2 1 1 8 11 13 5 12 17 7 11 14 12 13 11 10 9 9 7 7 7 7 8 6 6 8 8 10 12 11 8 6 6 5 4 5
7 13 4 4 5 5 6 6 2 3 3 9 4 11 17 3 2 9 18 18 16 15 13 12 12 9 9 8 8 7 7 6 7 8 8 8 9 10 10 8 6 6 4 4
9 5 21 12 14 9 11 10 7 8 6 4 2 10 8 3 5 5 16 18 16 17 15 14 13 11 11 10 9 9 9 8 8 8 8 8 8 5 6 7 7 5 5 5
5 8 4 10 6 9 6 10 10 5 2 2 7 9 7 5 3 1 13 17 18 18 16 15 13 11 10 8 8 9 9 8 8 8 8 8 8 8 8 9 7 5 6 5
4 4 3 2 6 4 2 4 4 3 4 7 7 11 12 7 12 8 15 19 18 17 16 14 13 12 10 9 8 9 8 8 8 8 7 7 7 8 8 7 8 7 6 6
4 4 1 4 7 12 5 5 5 5 5 4 4 10 4 17 15 19 17 18 20 20 18 16 14 11 11 9 9 9 8 8 8 8 8 8 7 8 7 7 7 7 7 7
6 2 5 10 9 10 10 9 14 6 8 9 6 19 4 6 11 15 15 17 17 18 17 15 14 13 13 12 10 10 8 9 8 8 9 8 9 8 8 7 7 7 7 6
10 4 4 3 1 2 7 13 17 19 2 18 5 14 4 6 6 10 14 15 16 17 18 16 15 15 14 13 12 11 10 10 9 10 10 9 8 8 8 8 8 7 7 7
9 5 10 15 4 8 7 14 18 16 12 17 23 21 3 3 5 7 11 14 16 18 20 17 16 16 15 14 14 13 11 12 11 11 10 9 9 8 8 8 8 7 7 7
11 10 11 23 22 11 6 7 20 24 33 16 30 24 21 11 13 15 11 11 15 18 20 18 17 15 15 15 14 14 13 13 12 12 10 10 8 8 8 8 8 7 7 6
5 7 11 24 21 17 19 13 19 26 28 28 30 30 4 9 10 9 11 15 16 17 19 20 17 16 17 17 16 15 15 12 12 12 10 9 10 9 9 8 7 8 7 6
10 7 6 18 7 11 14 30 25 22 26 21 27 38 5 4 10 10 9 12 15 16 18 18 19 17 16 17 16 16 13 12 13 11 10 10 11 11 10 10 9 8 8 7
7 9 5 7 4 12 7 2 24 27 29 26 27 20 6 8 6 7 14 17 12 9 10 11 11 12 12 12 12 12 10 13 12 11 11 11 12 11 10 10 9 7 7 8
8 8 5 6 8 7 9 5 8 11 23 20 24 22 7 7 5 5 4 6 9 9 7 7 10 9 11 12 11 12 10 12 12 12 12 12 12 12 11 11 11 8 7 6
5 1 7 4 5 8 4 5 3 7 14 12 18 15 11 8 8 9 9 9 9 10 8 9 9 8 12 9 11 12 11 12 13 13 12 11 11 12 13 12 11 6 5 6
5 3 10 10 5 6 4 6 2 7 9 4 2 5 14 11 4 6 9 7 6 7 9 8 9 10 9 9 11 11 10 12 10 7 8 9 10 11 10 8 5 6 5 5
7 9 5 4 6 9 5 4 9 4 5 3 2 3 3 4 5 7 8 8 9 10 8 7 9 7 6 8 10 9 11 6 7 8 8 8 7 6 6 9 4 5 6 5
6 8 6 7 5 2 2 1 1 0 1 4 2 2 6 6 4 6 7 9 8 9 8 5 9 8 5 7 8 10 6 8 8 8 7 6 6 5 6 7 6 4 5 5
3 3 3 3 1 3 3 3 4 2 2 1 2 3 5 5 7 6 6 7 7 5 6 5 8 7 6 4 5 5 7 7 8 7 7 6 6 6 4 4 5 5 6 5
2 5 5 1 2 2 6 6 6 3 2 5 5 3 5 8 4 6 6 6 6 6 4 5 7 6 5 6 6 4 6 7 7 6 6 5 4 5 5 3 4 5 3 6
5 6 4 4 6 4 6 9 6 4 0 2 3 2 3 5 7 5 6 5 5 6 3 4 4 6 5 7 7 5 4 5 7 6 4 4 4 3 4 4 1 10 11 12
Wind_Direction
207 203 208 212 211 244 279 298 283 291 131 184 228 246 234 197 210 215 211 187 181 182 132 143 142 119 115 99 110 108 116 121 131 123 109 94 93 81 67 59 54 51 54 57
114 230 235 236 242 229 241 256 264 283 146 181 266 262 262 192 209 206 205 191 174 139 150 164 163 137 120 123 121 127 139 157 146 81 81 92 98 83 82 71 60 54 56 56
202 193 212 226 245 225 246 240 252 245 255 211 274 267 246 251 213 198 210 189 169 156 163 167 159 147 136 128 133 137 121 99 94 102 103 104 108 96 84 63 71 53 59 60
233 237 254 221 222 182 243 223 236 252 273 247 146 280 259 259 233 194 191 189 163 155 150 160 165 151 138 125 121 107 110 120 124 132 135 136 111 111 96 97 83 69 60 64
212 178 207 207 198 182 217 56 353 204 256 289 270 284 238 213 249 212 198 183 173 160 156 158 159 136 126 137 128 118 109 104 104 109 113 113 116 119 116 104 93 78 63 62
245 82 227 200 129 209 120 91 90 88 226 256 210 219 242 224 230 209 186 182 173 158 150 153 132 129 134 132 129 128 128 133 121 113 110 115 122 124 121 111 100 87 74 63
219 227 189 141 101 5 159 136 231 269 202 239 162 221 242 290 123 194 183 180 174 160 158 153 153 155 152 155 148 142 135 124 113 104 107 115 119 114 115 118 117 116 103 80
193 242 186 177 205 173 188 184 167 225 214 279 330 240 248 329 27 335 169 169 166 166 164 163 166 161 158 157 156 143 142 133 120 116 115 109 110 119 118 118 112 111 115 112
201 234 65 153 197 187 182 217 229 343 109 350 219 262 278 180 208 351 155 168 173 169 167 165 166 161 156 157 150 140 140 140 131 125 121 117 117 114 116 109 109 113 111 108
244 244 8 75 78 330 176 172 125 147 222 232 262 251 240 232 217 201 180 179 175 169 169 170 170 163 157 153 150 142 144 145 140 127 119 118 116 115 119 114 115 113 114 112
187 171 172 108 195 177 147 215 219 180 187 225 301 256 258 226 195 192 194 183 179 175 173 172 171 166 158 153 149 148 147 140 138 133 132 129 127 122 118 123 125 126 122 119
195 36 219 203 201 212 206 190 198 185 224 230 241 264 17 347 185 177 187 183 180 178 176 174 172 164 160 161 157 155 150 148 153 147 140 138 137 137 130 125 124 128 133 128
158 186 230 262 82 57 210 218 215 223 103 235 168 263 342 1 135 176 176 178 178 175 176 174 170 172 171 169 163 161 158 158 160 151 151 148 144 139 138 139 140 145 142 136
100 172 214 228 150 129 193 203 213 208 222 238 227 250 258 249 233 182 185 181 177 180 179 179 181 180 174 170 169 168 166 165 165 159 162 156 153 152 148 144 154 152 154 150
153 219 210 247 258 277 198 196 211 209 227 212 246 234 239 216 202 209 185 170 180 184 187 187 184 181 175 173 173 172 172 168 167 166 169 165 154 151 146 153 159 152 150 156
176 234 214 254 248 248 259 224 223 226 230 236 253 257 188 249 197 152 175 176 189 190 190 190 186 179 181 180 180 175 173 169 165 173 174 160 157 158 158 154 156 148 155 160
171 190 190 250 199 237 255 236 230 227 234 227 238 247 138 133 155 180 180 177 190 195 192 189 191 188 185 183 176 178 171 159 171 170 169 167 164 169 166 159 156 163 173 172
167 192 203 251 115 222 246 20 215 221 238 232 246 249 168 222 205 182 174 173 182 183 187 188 185 185 176 168 170 163 159 166 171 170 169 170 168 167 160 156 168 166 176 185
182 179 220 219 217 314 304 194 151 168 247 232 241 252 172 139 115 234 163 152 159 169 174 165 178 164 156 159 159 157 159 160 168 179 181 177 170 167 164 174 180 184 174 180
145 343 207 173 217 210 226 261 285 97 275 201 208 216 152 136 193 212 156 140 157 150 147 161 148 136 151 156 150 151 160 164 182 186 185 173 169 170 179 183 181 170 168 185
145 175 222 229 236 276 211 192 252 121 261 303 320 169 160 194 215 136 145 133 122 126 124 110 122 142 142 134 141 155 159 187 183 154 150 162 173 179 180 166 155 157 151 151
162 174 189 195 225 242 167 52 169 236 324 290 62 123 112 83 83 105 106 113 126 129 126 122 122 121 124 131 139 153 183 162 149 148 152 156 156 153 153 153 134 139 148 165
202 191 192 194 208 302 289 256 340 143 296 340 56 80 117 117 121 121 130 132 134 135 129 111 131 127 129 151 155 163 170 143 137 138 144 131 122 128 138 145 147 137 154 174
240 167 175 130 154 272 265 281 241 200 147 20 32 140 137 137 139 127 122 125 130 128 133 125 129 136 149 141 113 126 142 131 131 134 135 135 136 131 129 135 155 166 181 195
175 137 135 0 298 272 259 245 246 265 80 46 45 75 132 131 117 130 130 136 139 135 121 137 147 150 146 127 110 96 122 127 126 122 132 136 142 148 153 172 169 189 207 190
184 164 176 208 182 180 228 219 230 246 232 124 113 89 73 130 144 132 139 140 136 145 141 119 115 116 117 112 97 68 73 120 130 130 141 147 139 151 148 161 256 243 228 236